Regional Weather Roundup
Issued by NWS Kansas City/Pleasant Hill, MO

Home | Current Version | Previous Version | Graphics & Text | Print | Product List | Glossary Off
Versions: 1 2 3 4 5 6 7 8 9 10 11 12 13 14 15 16 17 18 19 20 21 22 23 24 25 26 27 28 29 30 31 32 33 34 35 36 37 38 39 40 41 42 43 44 45 46 47 48 49 50

000
ASUS43 KEAX 301410
RWREAX

WEATHER ROUNDUP FOR EASTERN KANSAS AND NORTHWEST MISSOURI
NATIONAL WEATHER SERVICE KANSAS CITY/PLEASANT HILL MO
800 AM CST FRI JAN 30 2015

KSZ040-057-103>105-MOZ028-029-037-043-301500-
...KANSAS CITY METROPOLITAN AREA...

CITY           SKY/WX    TMP DP  RH WIND       PRES   REMARKS
K.C. INTL      PTCLDY    22  19  89 NE5       30.53S WCI  16
K.C. DOWNTOWN  CLEAR     24  19  81 NE5       30.55S WCI  18
LEES SUMMIT    PTCLDY    24  19  81 NE6       30.53F WCI  17
OLATHE - IXD   CLEAR     18  18 100 CALM      30.53S
OLATHE - OJC   CLEAR     23  20  88 E5        30.51F WCI  17
LAWRENCE       CLEAR     15  12  88 CALM      30.55S FOG

$$

MOZ001>008-011>017-020>025-030>033-038>040-044>046-053-054-301500-
...NORTHERN AND CENTRAL MISSOURI...

CITY           SKY/WX    TMP DP  RH WIND       PRES   REMARKS
ST. JOSEPH     FAIR      17  14  88 N3        30.56S FOG
MOSBY          SUNNY     18  18 100 CALM      30.56R
WARRENSBURG    CLEAR     21  19  93 N5        30.56S WCI  15
WHITEMAN AFB   CLEAR     20  17  85 NE3       30.54S
CLINTON        CLEAR     23  23 100 CALM      30.56R
SEDALIA        CLEAR     24  19  81 N6        30.55R WCI  17
WARSAW         NOT AVBL
MARSHALL       CLEAR     25  21  86 N6        30.56S WCI  18
CHILLICOTHE      N/A     22  17  81 N3        30.56S
MOBERLY        CLEAR     21  16  79 CALM      30.56R
KIRKSVILLE     CLEAR     18  15  88 CALM      30.54S

$$

MOZ041-047>049-056>058-063>065-088>090-097-301500-
...EASTERN AND SOUTHERN MISSOURI...

CITY           SKY/WX    TMP DP  RH WIND       PRES   REMARKS
ST. LOUIS INTL PTCLDY    29  17  61 N8        30.55R WCI  21
SPIRIT OF STL  PTCLDY    28  18  66 N6        30.55R WCI  22
COLUMBIA       CLEAR     23  19  85 N5        30.54R WCI  17
JEFFERSON CITY CLEAR     23  19  85 CALM      30.56R
MEXICO         CLEAR     25  23  93 CALM      30.54R
HANNIBAL       CLEAR     27  18  69 N5        30.54S WCI  21
ROLLA          MOCLDY    24  19  81 N5        30.49R WCI  18
LEBANON        CLEAR     27  21  80 N7        30.51R WCI  19
OSAGE BEACH    CLEAR     25  19  80 CALM      30.53S
SPRINGFIELD    PTCLDY    25  22  88 NE3       30.50R
BRANSON        PTCLDY    27  25  93 CALM      30.52R
NEVADA         PTCLDY    25  23  93 N3        30.55S FOG
JOPLIN         PTCLDY    24  21  88 CALM      30.54R FOG
WEST PLAINS      N/A     27  21  78 N7        30.49R WCI  19

$$

IAZ060-094-KSZ022-034>040-054-083-096-NEZ052-066-093-301500-
...KANSAS...SOUTHEAST NEBRASKA AND IOWA...

CITY           SKY/WX    TMP DP  RH WIND       PRES   REMARKS
TOPEKA         PTCLDY    19  15  84 CALM      30.56R
MANHATTAN      PTCLDY    17  15  92 CALM      30.55S
EMPORIA        MOCLDY    20  18  92 W6        30.54R WCI  12
CHANUTE        PTCLDY    21  19  92 CALM      30.54R
WICHITA        CLOUDY    25  20  81 CALM      30.54R
OMAHA          PTCLDY    18  14  84 SE6       30.54R WCI  10
LINCOLN        PTCLDY    14  11  87 CALM      30.53F
FALLS CITY     CLEAR     13  10  88 NW3       30.55R
LAMONI         CLEAR     16  13  88 NE6       30.53R WCI   7
DES MOINES     CLEAR     19  12  74 VRB3      30.54F

$$




USA.gov is the U.S. government's official web portal to all federal, state and local government web resources and services.